Weather History for Pittsburgh Allegheny Co., PA

Change the Weather History Date:

Saturday, March 29, 2014

  Actual Average Record
Temperature  
Mean Temperature 49 °F -  
Max Temperature 61 °F 61 °F 78 °F (1988)
Min Temperature 37 °F 37 °F 20 °F (1990)
Degree Days  
Heating Degree Days 16    
Moisture  
Dew Point 41 °F    
Average Humidity 83    
Maximum Humidity 93    
Minimum Humidity 56    
Precipitation  
Precipitation 0.72 in - - ()
Sea Level Pressure  
Sea Level Pressure 29.84 in    
Wind  
Wind Speed 6 mph (NNE)    
Max Wind Speed 23 mph    
Max Gust Speed 32 mph    
Visibility 4 miles    
Events Fog , Rain    
Averages and records for this station are not official NWS values.
T = Trace of Precipitation, MM = Missing Value Source: NWS Daily Summary

Daily Weather History Graph

Daily Weather History Graph

Search for Another Location

Airport:

Trip Planner

Search our weather history database for the weather conditions in past years. The results will help you decide how hot, cold, wet, or windy it might be!

Date:

Astronomy

Mar. 29, 2014 Rise Set
Actual Time 7:08 AM EDT 7:41 PM EDT
Civil Twilight 6:41 AM EDT 8:08 PM EDT
Nautical Twilight 6:08 AM EDT 8:40 PM EDT
Astronomical Twilight 5:35 AM EDT 9:14 PM EDT
Moon 6:16 AM EDT (3/29) 6:44 PM EDT (3/29)
Length of Visible Light 13h 27m
Length of Day
12h 32m
Waning Crescent, 2% of the Moon is Illuminated
Mar 29
Waning Crescent
Mar 30
New
Apr 7
First Quarter
Apr 15
Full
Apr 22
Last Quarter

Hourly Weather History & Observations

Time (EDT) Temp. Windchill Dew Point Humidity Pressure Visibility Wind Dir Wind Speed Gust Speed Precip Events Conditions
12:53 AM 41.0 °F - 36.0 °F 82% 30.16 in 6.0 mi Calm Calm - N/A   Haze
1:07 AM 42.8 °F 40.1 °F 35.6 °F 76% 30.14 in 6.0 mi North 4.6 mph - N/A   Haze
1:53 AM 42.1 °F 38.4 °F 36.0 °F 79% 30.14 in 6.0 mi North 5.8 mph - N/A   Haze
2:53 AM 42.1 °F 38.4 °F 36.0 °F 79% 30.13 in 7.0 mi North 5.8 mph - N/A   Overcast
3:53 AM 41.0 °F 39.0 °F 35.1 °F 79% 30.10 in 6.0 mi North 3.5 mph - N/A   Haze
4:53 AM 39.9 °F 35.8 °F 34.0 °F 79% 30.08 in 6.0 mi NNE 5.8 mph - N/A   Haze
5:11 AM 39.2 °F 35.9 °F 33.8 °F 81% 30.05 in 6.0 mi North 4.6 mph - N/A   Haze
5:53 AM 39.0 °F 35.7 °F 34.0 °F 82% 30.07 in 7.0 mi North 4.6 mph - N/A   Clear
6:53 AM 37.9 °F 33.5 °F 33.1 °F 83% 30.06 in 7.0 mi North 5.8 mph - N/A   Clear
7:53 AM 39.9 °F 35.1 °F 34.0 °F 79% 30.06 in 7.0 mi North 6.9 mph - N/A   Mostly Cloudy
8:53 AM 43.0 °F 39.5 °F 36.0 °F 76% 30.03 in 7.0 mi NNE 5.8 mph - N/A   Overcast
9:53 AM 45.0 °F 43.5 °F 36.0 °F 71% 30.01 in 6.0 mi Variable 3.5 mph - N/A   Haze
10:53 AM 46.9 °F - 39.0 °F 74% 29.99 in 10.0 mi North 4.6 mph - 0.00 in   Overcast
11:53 AM 48.9 °F - 39.9 °F 71% 29.95 in 7.0 mi Variable 3.5 mph - 0.00 in Rain Light Rain
12:53 PM 55.9 °F - 43.0 °F 62% 29.88 in 7.0 mi Variable 5.8 mph - 0.00 in   Scattered Clouds
1:53 PM 61.0 °F - 45.0 °F 56% 29.83 in 8.0 mi Variable 3.5 mph - N/A   Clear
2:53 PM 57.0 °F - 46.9 °F 69% 29.79 in 4.0 mi NNW 3.5 mph - 0.00 in Rain Light Rain
3:08 PM 55.4 °F - 46.4 °F 72% 29.76 in 2.5 mi NE 3.5 mph - 0.02 in Rain Light Rain
3:18 PM 55.4 °F - 48.2 °F 77% 29.75 in 4.0 mi ENE 4.6 mph - 0.04 in Rain Rain
3:53 PM 55.0 °F - 50.0 °F 83% 29.75 in 4.0 mi East 11.5 mph - 0.09 in Rain Light Rain
4:00 PM 53.6 °F - 50.0 °F 88% 29.73 in 1.5 mi East 11.5 mph - 0.02 in Rain Light Rain
4:31 PM 53.6 °F - 50.0 °F 88% 29.72 in 2.0 mi ENE 9.2 mph - 0.09 in Rain Rain
4:53 PM 51.1 °F - 48.0 °F 89% 29.73 in 2.0 mi NE 6.9 mph - 0.17 in Rain Rain
5:00 PM 51.8 °F - 48.2 °F 88% 29.71 in 0.5 mi Variable 6.9 mph - 0.01 in Fog , Rain Light Rain
5:41 PM 50.0 °F - 46.4 °F 87% 29.70 in 0.8 mi Variable 6.9 mph - 0.09 in Rain Light Rain
5:53 PM 48.9 °F - 46.0 °F 90% 29.73 in 1.0 mi NE 8.1 mph - 0.12 in Rain Light Rain
6:11 PM 48.2 °F - 44.6 °F 87% 29.70 in 1.2 mi Variable 6.9 mph 16.1 mph 0.02 in Rain Light Rain
6:34 PM 48.2 °F - 44.6 °F 87% 29.70 in 0.8 mi Variable 4.6 mph - 0.06 in Rain Rain
6:43 PM 48.2 °F - 44.6 °F 87% 29.70 in 0.5 mi NNE 5.8 mph - 0.08 in Fog , Rain Light Rain
6:53 PM 46.9 °F - 45.0 °F 93% 29.72 in 0.8 mi North 5.8 mph - 0.09 in Rain Light Rain
7:00 PM 46.4 °F 42.4 °F 44.6 °F 93% 29.69 in 2.5 mi North 8.1 mph - 0.02 in Rain Light Rain
7:53 PM 46.0 °F 41.9 °F 43.0 °F 89% 29.73 in 1.2 mi North 8.1 mph - 0.08 in Rain Light Rain
8:20 PM 44.6 °F 39.2 °F 42.8 °F 93% 29.69 in 2.0 mi NNE 10.4 mph 18.4 mph 0.01 in Rain Light Rain
8:35 PM 44.6 °F 39.7 °F 42.8 °F 93% 29.69 in 3.0 mi North 9.2 mph 17.3 mph 0.01 in   Overcast
8:53 PM 45.0 °F 40.1 °F 42.1 °F 90% 29.72 in 4.0 mi North 9.2 mph 18.4 mph 0.02 in Rain Light Rain
9:32 PM 44.6 °F 38.1 °F 41.0 °F 87% 29.69 in 2.5 mi North 13.8 mph 20.7 mph 0.02 in Rain Light Rain
9:49 PM 44.6 °F 39.7 °F 41.0 °F 87% 29.70 in 3.0 mi North 9.2 mph 19.6 mph 0.04 in Rain Light Rain
9:53 PM 44.1 °F 37.7 °F 41.0 °F 89% 29.73 in 3.0 mi North 12.7 mph 23.0 mph 0.04 in Rain Light Rain
10:13 PM 44.6 °F 38.8 °F 41.0 °F 87% 29.70 in 2.0 mi North 11.5 mph - 0.02 in Rain Light Rain
10:53 PM 41.0 °F 31.1 °F 37.9 °F 89% 29.75 in 2.0 mi North 23.0 mph 32.2 mph 0.06 in Rain Light Rain
11:12 PM 39.2 °F 30.8 °F 37.4 °F 93% 29.73 in 3.0 mi NNW 15.0 mph 28.8 mph 0.01 in Rain Light Rain
11:29 PM 39.2 °F 29.6 °F 35.6 °F 87% 29.74 in 3.0 mi NNW 19.6 mph 27.6 mph 0.02 in Rain Light Rain
11:53 PM 37.0 °F 27.4 °F 34.0 °F 89% 29.78 in 3.0 mi NNW 17.3 mph 27.6 mph 0.05 in Rain Rain